Weather History for Logansport, IN

Change the Weather History Date:

Wednesday, May 2, 2012

  Actual Average Record
Temperature  
Mean Temperature 68 °F -  
Max Temperature 80 °F 68 °F 78 °F (2013)
Min Temperature 55 °F 47 °F 44 °F (2014)
Cooling Degree Days 2    
Growing Degree Days 18 (Base 50)    
Moisture  
Dew Point 63 °F    
Average Humidity 81    
Maximum Humidity 100    
Minimum Humidity 57    
Precipitation  
Precipitation 0.00 in - - ()
Sea Level Pressure  
Sea Level Pressure 29.92 in    
Wind  
Wind Speed 9 mph ()    
Max Wind Speed 26 mph    
Max Gust Speed 37 mph    
Visibility 7.7 miles    
Events Fog    
Averages and records for this station are not official NWS values.
T = Trace of Precipitation, MM = Missing Value Source: Averaged Metar Reports

Daily Weather History Graph

Daily Weather History Graph

Search for Another Location

Airport:

Trip Planner

Search our weather history database for the weather conditions in past years. The results will help you decide how hot, cold, wet, or windy it might be!

Date:

Astronomy

May. 02, 2012 Rise Set
Actual Time 6:42 AM EDT 8:43 PM EDT
Civil Twilight 6:12 AM EDT 9:13 PM EDT
Nautical Twilight 5:35 AM EDT 9:49 PM EDT
Astronomical Twilight 4:56 AM EDT 10:29 PM EDT
Moon 4:54 PM EDT (5/2) 4:13 AM EDT (5/2)
Length of Visible Light 15h 00m
Length of Day
14h 00m
Waxing Gibbous, 83% of the Moon is Illuminated
May 2
Waxing Gibbous
May 5
Full
May 12
Last Quarter
May 20
New
May 28
First Quarter

Hourly Weather History & Observations

Time (EDT) Temp. Heat Index Dew Point Humidity Pressure Visibility Wind Dir Wind Speed Gust Speed Precip Events Conditions
12:15 AM 60.8 °F - 59.0 °F 94% 29.88 in 7.0 mi SE 4.6 mph - N/A   Scattered Clouds
12:35 AM 59.0 °F - 59.0 °F 100% 29.88 in 5.0 mi SE 4.6 mph - N/A   Clear
12:55 AM 59.0 °F - 57.2 °F 94% 29.88 in 2.0 mi ESE 3.5 mph - N/A   Clear
1:15 AM 57.2 °F - 57.2 °F 100% 29.88 in 2.5 mi ESE 4.6 mph - N/A   Clear
1:35 AM 59.0 °F - 57.2 °F 94% 29.88 in 2.5 mi East 4.6 mph - N/A   Clear
1:55 AM 57.2 °F - 57.2 °F 100% 29.89 in 2.0 mi East 4.6 mph - N/A   Mostly Cloudy
2:15 AM 55.4 °F - 55.4 °F 100% 29.88 in 0.5 mi East 4.6 mph - N/A Fog Fog
2:35 AM 55.4 °F - 55.4 °F 100% 29.88 in 0.5 mi East 5.8 mph - N/A Fog Fog
3:15 AM 55.4 °F - 55.4 °F 100% 29.88 in 0.5 mi ESE 5.8 mph - N/A Fog Fog
3:35 AM 55.4 °F - 55.4 °F 100% 29.87 in 0.2 mi ESE 6.9 mph - N/A Fog Fog
3:55 AM 55.4 °F - 55.4 °F 100% 29.87 in 0.2 mi ESE 5.8 mph - N/A Fog Fog
4:15 AM 55.4 °F - 55.4 °F 100% 29.87 in 0.2 mi ESE 5.8 mph - N/A Fog Fog
4:35 AM 55.4 °F - 55.4 °F 100% 29.87 in 0.2 mi SE 4.6 mph - N/A Fog Fog
4:55 AM 57.2 °F - 57.2 °F 100% 29.87 in 1.0 mi SSE 5.8 mph - N/A   Mostly Cloudy
5:15 AM 57.2 °F - 57.2 °F 100% 29.87 in 2.0 mi SSE 5.8 mph - N/A   Clear
5:35 AM 59.0 °F - 59.0 °F 100% 29.87 in 4.0 mi South 6.9 mph - N/A   Clear
5:55 AM 60.8 °F - 60.8 °F 100% 29.88 in 5.0 mi South 6.9 mph - N/A   Clear
6:15 AM 60.8 °F - 59.0 °F 94% 29.88 in 5.0 mi South 5.8 mph - N/A   Clear
6:35 AM 59.0 °F - 59.0 °F 100% 29.88 in 4.0 mi South 8.1 mph - N/A   Clear
6:55 AM 60.8 °F - 59.0 °F 94% 29.88 in 5.0 mi SSW 9.2 mph - N/A   Clear
7:15 AM 62.6 °F - 60.8 °F 94% 29.89 in 10.0 mi SSW 9.2 mph - N/A   Clear
7:35 AM 62.6 °F - 60.8 °F 94% 29.90 in 10.0 mi SSW 10.4 mph - N/A   Clear
7:55 AM 64.4 °F - 62.6 °F 94% 29.90 in 10.0 mi SSW 11.5 mph - N/A   Clear
8:15 AM 66.2 °F - 62.6 °F 88% 29.91 in 10.0 mi SSW 11.5 mph - N/A   Clear
8:35 AM 68.0 °F - 62.6 °F 83% 29.91 in 10.0 mi SSW 13.8 mph 18.4 mph N/A   Clear
8:55 AM 69.8 °F - 62.6 °F 78% 29.92 in 10.0 mi SW 13.8 mph - N/A   Clear
9:15 AM 71.6 °F - 64.4 °F 78% 29.92 in 10.0 mi SW 15.0 mph - N/A   Clear
9:35 AM 71.6 °F - 64.4 °F 78% 29.91 in 10.0 mi SW 17.3 mph 23.0 mph N/A   Clear
9:55 AM 73.4 °F - 64.4 °F 73% 29.92 in 10.0 mi SW 17.3 mph 23.0 mph N/A   Clear
10:15 AM 73.4 °F - 64.4 °F 73% 29.93 in 10.0 mi SW 17.3 mph 23.0 mph N/A   Scattered Clouds
10:35 AM 73.4 °F - 66.2 °F 78% 29.93 in 10.0 mi SW 16.1 mph 25.3 mph N/A   Scattered Clouds
10:55 AM 75.2 °F - 66.2 °F 73% 29.92 in 10.0 mi SW 16.1 mph 28.8 mph N/A   Scattered Clouds
11:15 AM 75.2 °F - 66.2 °F 73% 29.94 in 10.0 mi SW 19.6 mph 25.3 mph N/A   Clear
11:35 AM 77.0 °F - 66.2 °F 69% 29.94 in 10.0 mi WSW 21.9 mph 27.6 mph N/A   Clear
11:55 AM 77.0 °F - 66.2 °F 69% 29.95 in 10.0 mi WSW 21.9 mph 28.8 mph N/A   Scattered Clouds
12:15 PM 78.8 °F - 66.2 °F 65% 29.95 in 10.0 mi WSW 19.6 mph 28.8 mph N/A   Scattered Clouds
12:35 PM 78.8 °F - 66.2 °F 65% 29.95 in 10.0 mi WSW 25.3 mph 36.8 mph N/A   Scattered Clouds
12:55 PM 78.8 °F - 68.0 °F 69% 29.95 in 10.0 mi WSW 24.2 mph 28.8 mph N/A   Scattered Clouds
1:15 PM 78.8 °F - 66.2 °F 65% 29.96 in 10.0 mi WSW 23.0 mph 29.9 mph N/A   Mostly Cloudy
1:35 PM 78.8 °F - 66.2 °F 65% 29.96 in 10.0 mi WSW 26.5 mph 34.5 mph N/A   Mostly Cloudy
1:55 PM 78.8 °F - 66.2 °F 65% 29.96 in 10.0 mi WSW 25.3 mph 33.4 mph N/A   Scattered Clouds
2:15 PM 78.8 °F - 66.2 °F 65% 29.96 in 10.0 mi WSW 25.3 mph 32.2 mph N/A   Mostly Cloudy
2:35 PM 78.8 °F - 64.4 °F 61% 29.96 in 10.0 mi WSW 23.0 mph 35.7 mph N/A   Mostly Cloudy
2:55 PM 80.6 °F 82.7 °F 66.2 °F 61% 29.96 in 10.0 mi WSW 24.2 mph 32.2 mph N/A   Scattered Clouds
3:15 PM 78.8 °F - 64.4 °F 61% 29.96 in 10.0 mi WSW 24.2 mph - N/A   Scattered Clouds
3:35 PM 80.6 °F 82.3 °F 64.4 °F 58% 29.95 in 10.0 mi West 17.3 mph 25.3 mph N/A   Clear
3:55 PM 80.6 °F 82.7 °F 66.2 °F 61% 29.95 in 10.0 mi WSW 19.6 mph 27.6 mph N/A   Clear
4:15 PM 80.6 °F 82.7 °F 66.2 °F 61% 29.94 in 10.0 mi WSW 19.6 mph - N/A   Clear
4:35 PM 78.8 °F - 66.2 °F 65% 29.92 in 10.0 mi SW 15.0 mph 20.7 mph N/A   Clear
4:55 PM 80.6 °F 82.3 °F 64.4 °F 58% 29.91 in 10.0 mi SW 17.3 mph 27.6 mph N/A   Clear
5:15 PM 80.6 °F 82.7 °F 66.2 °F 61% 29.90 in 10.0 mi SSW 16.1 mph 23.0 mph N/A   Clear
5:35 PM 80.6 °F 82.7 °F 66.2 °F 61% 29.90 in 10.0 mi SW 12.7 mph - N/A   Scattered Clouds
5:55 PM 78.8 °F - 64.4 °F 61% 29.90 in 10.0 mi SSW 18.4 mph - N/A   Scattered Clouds
6:15 PM 78.8 °F - 62.6 °F 57% 29.91 in 10.0 mi SSW 16.1 mph 20.7 mph N/A   Clear
6:55 PM 78.8 °F - 62.6 °F 57% 29.92 in 10.0 mi SW 12.7 mph - N/A   Clear
7:15 PM 78.8 °F - 64.4 °F 61% 29.92 in 10.0 mi SW 9.2 mph - N/A   Clear
7:35 PM 77.0 °F - 66.2 °F 69% 29.93 in 10.0 mi SW 5.8 mph - N/A   Clear
7:55 PM 77.0 °F - 68.0 °F 74% 29.93 in 10.0 mi SW 4.6 mph - N/A   Clear
8:15 PM 73.4 °F - 68.0 °F 83% 29.94 in 10.0 mi SW 4.6 mph - N/A   Clear
8:35 PM 73.4 °F - 66.2 °F 78% 29.94 in 10.0 mi Calm Calm - N/A   Clear
8:55 PM 71.6 °F - 66.2 °F 83% 29.94 in 10.0 mi Calm Calm - N/A   Clear
9:15 PM 71.6 °F - 66.2 °F 83% 29.95 in 10.0 mi Calm Calm - N/A   Clear
9:35 PM 69.8 °F - 64.4 °F 83% 29.95 in 10.0 mi Calm Calm - N/A   Clear
9:55 PM 69.8 °F - 64.4 °F 83% 29.96 in 10.0 mi East 4.6 mph - N/A   Clear
10:15 PM 66.2 °F - 62.6 °F 88% 29.96 in 10.0 mi ESE 4.6 mph - N/A   Clear
10:35 PM 66.2 °F - 64.4 °F 94% 29.97 in 10.0 mi ESE 4.6 mph - N/A   Clear
10:55 PM 64.4 °F - 62.6 °F 94% 29.97 in 7.0 mi ESE 5.8 mph - N/A   Clear
11:15 PM 62.6 °F - 60.8 °F 94% 29.97 in 7.0 mi ESE 4.6 mph - N/A   Clear
11:35 PM 62.6 °F - 62.6 °F 100% 29.97 in 7.0 mi ESE 4.6 mph - N/A   Clear
11:55 PM 62.6 °F - 62.6 °F 100% 29.97 in 7.0 mi ESE 5.8 mph - N/A   Clear